PBO Station Position Time Series. Reference Frame : NAM14
Format Version,1.1.0
4-character ID,NANO
Station name,Nanoose
Begin Date, 1996-01-01
End Date, 2019-10-07
Release Date, 2019-10-08
Reference position, 49.2948100430 North Latitude, -124.0864798934 East Longitude, 6.58036 meters elevation,
Date, North (mm), East (mm), Vertical (mm), North Std. Deviation (mm), East Std. Deviation (mm),              Vertical Std. Deviation (mm), Quality,
1996-01-01,0.00, 0.00, 0.00, 3.11, 2.33, 9.78, repro,
1996-01-02,0.89, -0.28, 7.48, 3.15, 2.30, 9.71, repro,
1996-01-03,-0.64, -0.10, 12.12, 3.11, 2.35, 9.73, repro,
1996-01-04,-1.29, -0.66, 1.71, 3.05, 2.27, 9.52, repro,
1996-01-05,-1.40, 0.17, -0.90, 3.18, 2.35, 9.77, repro,
1996-01-06,0.06, -3.59, 14.99, 3.05, 2.24, 9.65, repro,
1996-01-07,0.15, -1.61, 0.83, 3.06, 2.20, 9.60, repro,
1996-01-08,-2.40, -2.47, 7.92, 3.17, 2.44, 10.44, repro,
1996-01-09,-2.54, -2.41, -5.07, 2.98, 2.14, 9.39, repro,
1996-01-10,-2.34, -0.26, -0.80, 2.96, 2.22, 9.39, repro,
1996-01-11,-1.13, -1.44, 1.62, 3.11, 2.31, 9.87, repro,
1996-01-12,-2.66, -1.01, 4.30, 2.97, 2.28, 9.37, repro,
1996-01-13,-2.08, -1.02, 5.98, 2.98, 2.23, 9.25, repro,
1996-01-14,-1.86, -1.38, -5.26, 3.32, 2.46, 10.27, repro,
1996-01-15,-1.79, -1.41, 0.25, 3.01, 2.30, 9.54, repro,
1996-01-16,-1.29, -0.79, 0.76, 3.21, 2.39, 10.43, repro,
1996-01-17,-3.84, -0.53, 4.61, 3.20, 2.48, 10.42, repro,
1996-01-18,-2.10, -2.64, 2.72, 2.94, 2.23, 9.36, repro,
1996-01-19,-0.97, 0.26, 22.50, 4.15, 3.61, 14.49, repro,
1996-01-20,-0.55, -3.19, -5.83, 4.02, 2.85, 12.51, repro,
1996-01-21,-1.71, 1.74, 9.88, 3.86, 2.78, 11.86, repro,
1996-01-22,-0.70, -1.29, 5.63, 3.95, 2.89, 12.72, repro,
1996-01-23,-1.68, -1.26, 3.50, 4.12, 2.94, 13.04, repro,
1996-01-24,-2.97, -2.20, -1.99, 4.18, 2.95, 13.07, repro,
1996-01-25,-2.39, -0.76, -1.17, 4.23, 3.12, 13.15, repro,
1996-01-26,-5.87, 1.46, 0.50, 4.04, 2.95, 12.60, repro,
1996-01-27,0.50, 0.87, -6.35, 4.09, 3.06, 12.77, repro,
1996-01-28,-0.09, -0.46, 4.11, 4.30, 3.26, 13.68, repro,
1996-01-29,-4.64, -0.73, -3.08, 3.24, 2.44, 10.11, repro,
1996-01-30,-5.21, -1.52, -6.95, 4.39, 3.19, 13.73, repro,
1996-01-31,-2.43, -0.12, 0.03, 3.29, 2.44, 10.24, repro,
1996-02-01,-1.51, 0.55, -2.09, 3.03, 2.25, 9.53, repro,
1996-02-02,-3.03, 1.19, 1.69, 3.22, 2.42, 10.17, repro,
1996-02-03,-2.32, 1.10, -3.40, 3.02, 2.25, 9.44, repro,
1996-02-04,-0.76, -2.63, -6.54, 2.97, 2.24, 9.61, repro,
1996-02-05,-2.44, 1.04, 2.59, 2.85, 2.17, 8.77, repro,
1996-02-06,-0.90, 0.69, 9.01, 2.88, 2.16, 8.89, repro,
1996-02-07,-1.68, -2.01, -2.10, 2.97, 2.22, 9.51, repro,
1996-02-08,-2.74, -0.91, 6.87, 2.85, 2.13, 8.71, repro,
1996-02-09,-0.40, 0.37, 0.68, 4.32, 3.23, 13.26, repro,
1996-02-10,-3.46, -0.41, -7.53, 2.97, 2.21, 9.37, repro,
1996-02-11,-2.52, 2.35, -10.98, 3.46, 2.73, 11.38, repro,
1996-02-12,0.99, 1.92, -11.38, 3.85, 2.95, 12.06, repro,
1996-02-13,-1.23, -0.86, -10.45, 3.79, 2.94, 12.42, repro,
1996-02-14,0.79, 3.32, -11.06, 5.38, 4.41, 19.97, repro,
1996-02-15,-1.39, -0.86, -8.61, 3.75, 2.89, 11.85, repro,
1996-02-16,-0.74, 0.75, 1.01, 3.81, 2.97, 12.13, repro,
1996-02-17,0.05, 2.42, -10.63, 3.70, 2.75, 11.76, repro,
1996-02-18,-0.71, 3.03, 7.21, 3.75, 2.78, 11.55, repro,
1996-02-19,-1.69, -2.69, 0.66, 3.80, 2.95, 11.94, repro,
1996-02-20,-0.23, -0.76, 2.55, 3.78, 2.91, 11.84, repro,
1996-02-21,-0.61, -0.91, -6.52, 3.73, 2.85, 11.68, repro,
1996-02-22,0.10, -0.15, -3.98, 3.40, 2.55, 10.87, repro,
1996-02-23,-1.41, -1.25, -10.71, 3.43, 2.63, 10.96, repro,
1996-02-24,-1.34, -0.94, -2.98, 3.55, 2.77, 11.81, repro,
1996-02-25,0.43, 0.33, -8.59, 3.49, 2.71, 11.63, repro,
1996-02-26,1.09, 1.11, -11.01, 3.44, 2.65, 11.08, repro,
1996-02-27,0.65, -0.26, -13.26, 3.46, 2.70, 11.34, repro,
1996-02-28,-0.36, 2.54, -11.26, 3.45, 2.68, 11.13, repro,
1996-02-29,-0.79, 1.31, -6.60, 3.44, 2.63, 11.02, repro,
1996-03-01,-2.00, 0.25, -12.43, 3.48, 2.65, 11.26, repro,
1996-03-02,-1.22, 0.63, -2.73, 3.31, 2.41, 10.06, repro,
1996-03-03,0.32, 1.69, -6.02, 3.46, 2.68, 11.28, repro,
1996-03-04,3.77, 3.60, -3.15, 3.39, 2.52, 10.46, repro,
1996-03-05,-0.17, -1.52, -8.73, 2.91, 2.12, 9.19, repro,
1996-03-06,-0.76, -1.27, -17.90, 3.19, 2.22, 9.73, repro,
1996-03-07,-1.94, 0.62, -12.79, 2.94, 2.11, 8.84, repro,
1996-03-08,-2.57, -1.27, -9.46, 3.73, 2.70, 11.57, repro,
1996-03-09,4.06, 0.32, -11.33, 3.42, 2.55, 10.89, repro,
1996-03-10,0.04, 1.37, -6.43, 3.42, 2.54, 10.85, repro,
1996-03-11,-0.68, -1.61, -17.00, 2.87, 2.13, 8.87, repro,
1996-03-12,-3.14, -3.20, -12.15, 2.83, 2.04, 8.47, repro,
1996-03-13,-4.69, -2.94, -13.67, 3.29, 2.28, 9.99, repro,
1996-03-14,0.89, -2.95, -11.91, 3.12, 2.25, 9.43, repro,
1996-03-15,-3.90, -1.19, -15.81, 3.41, 2.46, 10.42, repro,
1996-03-16,-2.51, -1.96, -14.55, 3.68, 2.64, 11.44, repro,
1996-03-17,-1.66, -1.47, -16.03, 3.47, 2.61, 10.91, repro,
1996-03-18,-1.57, -2.23, -15.71, 3.40, 2.50, 10.61, repro,
1996-03-19,-1.02, -0.49, -11.76, 3.22, 2.36, 9.92, repro,
1996-03-20,-3.02, -2.00, -17.74, 3.39, 2.44, 10.71, repro,
1996-03-21,-1.75, -2.24, -7.34, 3.36, 2.43, 10.44, repro,
1996-03-22,-3.67, -2.81, -15.27, 3.31, 2.48, 10.21, repro,
1996-03-23,-2.76, -0.56, -10.77, 3.31, 2.51, 10.28, repro,
1996-03-24,3.28, -2.35, -16.20, 3.77, 2.74, 11.42, repro,
1996-03-25,-2.22, -0.91, -12.66, 3.24, 2.43, 10.03, repro,
1996-03-26,-1.66, -2.42, -13.68, 3.33, 2.39, 10.32, repro,
1996-03-27,-3.21, -1.66, -9.08, 2.94, 2.16, 8.90, repro,
1996-03-28,-2.79, -2.43, -10.73, 2.75, 2.01, 8.27, repro,
1996-03-29,-3.25, -3.63, -9.41, 2.72, 2.00, 8.30, repro,
1996-03-30,-2.17, -2.12, -11.43, 2.87, 2.07, 8.41, repro,
1996-03-31,-1.83, -1.29, -5.45, 2.77, 2.07, 8.25, repro,
1996-04-01,-2.17, -1.55, -0.65, 2.89, 2.05, 8.39, repro,
1996-04-02,-3.42, -2.64, -8.71, 3.06, 2.29, 8.83, repro,
1996-04-03,-3.56, -1.30, -4.48, 2.70, 1.97, 8.08, repro,
1996-04-04,-1.88, 0.07, -7.80, 2.95, 2.10, 8.41, repro,
1996-04-05,-1.11, -1.62, -5.12, 2.78, 2.05, 8.38, repro,
1996-04-06,-1.79, -0.17, -6.14, 2.74, 2.05, 8.22, repro,
1996-04-07,-3.83, -1.42, -8.99, 2.78, 2.04, 8.34, repro,
1996-04-08,-1.57, -1.72, -7.36, 2.76, 2.03, 8.15, repro,
1996-04-09,-2.15, -1.77, -7.48, 2.79, 2.04, 8.33, repro,
1996-04-10,-2.32, -2.11, -0.58, 2.77, 2.06, 8.28, repro,
1996-04-11,-3.20, -2.76, -9.06, 2.73, 2.02, 8.18, repro,
1996-04-12,-0.25, -0.23, -5.89, 2.96, 2.20, 8.88, repro,
1996-04-13,-2.49, -1.20, -8.10, 2.76, 2.02, 8.25, repro,
1996-04-14,-2.01, -2.47, -5.80, 2.90, 2.10, 8.57, repro,
1996-04-15,-1.51, -2.35, -1.49, 2.85, 2.09, 8.61, repro,
1996-04-16,-0.39, -3.29, -6.11, 2.84, 2.10, 8.53, repro,
1996-04-17,-1.12, -0.60, -0.58, 2.83, 2.12, 8.59, repro,
1996-04-18,-0.31, -2.23, -8.84, 2.80, 2.08, 8.84, repro,
1996-04-19,-0.95, -1.73, -8.60, 2.72, 2.02, 8.29, repro,
1996-04-20,-1.17, -1.37, -6.21, 2.94, 2.23, 9.13, repro,
1996-04-21,-3.33, -1.17, -9.52, 3.07, 2.22, 9.01, repro,
1996-04-22,-0.40, -1.37, -4.19, 2.78, 2.06, 8.38, repro,
1996-04-23,-0.50, -3.22, -9.09, 2.82, 2.09, 8.55, repro,
1996-04-24,-2.70, -2.22, -11.71, 2.75, 2.02, 8.32, repro,
1996-04-25,-1.65, -3.20, -0.45, 2.78, 2.00, 8.40, repro,
1996-04-26,0.67, -3.74, -4.64, 2.75, 2.02, 8.58, repro,
1996-04-27,-1.95, -1.50, -6.04, 2.77, 2.02, 8.59, repro,
1996-04-28,-2.05, -1.57, -11.37, 2.83, 2.10, 8.62, repro,
1996-04-29,0.10, -1.10, -13.63, 2.89, 2.10, 8.62, repro,
1996-04-30,0.47, -0.74, -11.84, 3.09, 2.18, 9.23, repro,
1996-05-01,1.94, -1.31, -9.28, 2.86, 2.14, 8.71, repro,
1996-05-02,-1.42, -1.13, -8.45, 2.88, 2.08, 8.92, repro,
1996-05-03,-0.95, -2.29, -10.21, 2.80, 2.07, 8.77, repro,
1996-05-04,0.70, -1.93, -13.15, 2.77, 2.06, 8.69, repro,
1996-05-05,-0.09, -1.04, -12.77, 2.71, 1.98, 8.31, repro,
1996-05-06,0.26, -1.93, -11.65, 2.66, 1.93, 8.10, repro,
1996-05-07,-0.95, -1.12, -12.97, 2.83, 2.08, 8.62, repro,
1996-05-08,0.29, -0.74, -10.93, 2.78, 2.07, 8.55, repro,
1996-05-09,-0.68, -1.10, -8.79, 2.76, 2.02, 8.41, repro,
1996-05-10,-0.42, 0.31, -10.94, 2.95, 2.15, 9.08, repro,
1996-05-11,0.11, -2.09, -6.24, 3.16, 2.28, 9.60, repro,
1996-05-12,-1.83, -1.58, -4.82, 2.86, 2.10, 8.66, repro,
1996-05-13,-1.40, -1.96, -5.20, 2.80, 2.06, 8.63, repro,
1996-05-14,-0.68, -0.21, -8.08, 2.81, 2.05, 8.42, repro,
1996-05-15,-0.97, -1.28, -4.36, 2.76, 2.02, 8.33, repro,
1996-05-16,-0.87, -2.16, -4.20, 2.74, 2.06, 8.51, repro,
1996-05-17,1.33, -2.53, -2.55, 2.87, 2.13, 8.75, repro,
1996-05-18,0.27, -2.54, 0.41, 2.87, 2.12, 8.87, repro,
1996-05-19,-1.00, -3.40, -2.46, 2.75, 2.03, 8.35, repro,
1996-05-20,0.38, -1.00, -6.62, 2.75, 2.06, 8.57, repro,
1996-05-21,-0.12, -1.17, 0.10, 2.98, 2.23, 9.19, repro,
1996-05-22,-1.20, -2.17, -4.82, 3.18, 2.32, 9.70, repro,
1996-05-23,-1.26, -2.72, -10.60, 2.98, 2.13, 9.13, repro,
1996-05-24,-0.77, -1.63, -10.66, 2.98, 2.19, 9.12, repro,
1996-05-25,2.68, 0.05, -14.18, 3.00, 2.18, 9.08, repro,
1996-05-26,-0.46, -2.69, -4.53, 2.80, 2.07, 8.60, repro,
1996-05-27,0.62, -1.08, -1.38, 3.15, 2.26, 9.33, repro,
1996-05-28,0.39, -2.44, -8.88, 2.78, 2.07, 8.56, repro,
1996-05-29,0.74, -2.04, -5.59, 2.90, 2.15, 9.09, repro,
1996-05-30,-0.22, -1.55, -10.52, 2.88, 2.11, 8.89, repro,
1996-05-31,-0.14, -2.17, -7.97, 2.79, 2.06, 8.62, repro,
1996-06-01,-0.38, -0.20, -8.39, 2.81, 2.09, 8.68, repro,
1996-06-02,1.69, -1.16, -16.69, 2.91, 2.12, 8.98, repro,
1996-06-03,-1.57, -2.52, -5.18, 2.90, 2.11, 8.89, repro,
1996-06-04,-0.86, -3.43, -8.46, 2.81, 2.09, 8.85, repro,
1996-06-05,-1.23, -1.75, -5.39, 2.88, 2.17, 9.34, repro,
1996-06-06,1.39, -1.51, -8.60, 2.78, 2.07, 8.73, repro,
1996-06-07,0.92, -1.31, -1.73, 2.94, 2.14, 9.29, repro,
1996-06-08,1.80, -2.25, -8.64, 2.79, 2.04, 8.84, repro,
1996-06-09,-1.13, -3.60, 1.60, 2.80, 2.05, 8.84, repro,
1996-06-10,-0.60, -2.94, -11.09, 2.84, 2.11, 9.06, repro,
1996-06-11,2.76, -2.69, -3.98, 2.86, 2.13, 9.15, repro,
1996-06-12,1.82, -1.25, -2.63, 2.82, 2.08, 8.81, repro,
1996-06-13,1.72, -1.09, 0.20, 2.89, 2.09, 8.97, repro,
1996-06-14,2.39, -1.22, -8.62, 2.84, 2.08, 8.80, repro,
1996-06-15,1.00, -3.07, -6.18, 2.83, 2.09, 8.89, repro,
1996-06-16,1.69, -2.15, -11.16, 2.86, 2.13, 9.05, repro,
1996-06-17,2.09, -2.16, -13.63, 2.84, 2.13, 8.90, repro,
1996-06-18,0.95, -2.18, -7.50, 2.84, 2.08, 8.94, repro,
1996-06-19,0.18, -1.99, -6.69, 2.90, 2.12, 9.20, repro,
1996-06-20,0.92, -2.55, -9.09, 2.82, 2.06, 8.88, repro,
1996-06-21,-1.43, -3.03, 3.17, 2.81, 2.05, 8.80, repro,
1996-06-22,-1.61, -4.40, -12.26, 2.61, 1.87, 8.40, repro,
1996-06-23,-1.34, -3.12, -6.18, 2.78, 2.03, 8.73, repro,
1996-06-24,0.42, -2.67, -6.35, 2.89, 2.08, 9.11, repro,
1996-06-25,-0.01, -2.71, 0.89, 2.91, 2.07, 9.00, repro,
1996-06-26,2.09, -2.93, -1.37, 2.82, 2.06, 8.80, repro,
1996-06-27,-0.56, -2.65, -3.72, 2.77, 2.02, 8.81, repro,
1996-06-28,-1.30, -2.67, -11.35, 2.84, 2.08, 8.91, repro,
1996-06-29,-0.40, -2.72, -7.19, 2.79, 2.04, 8.74, repro,
1996-06-30,1.62, -2.42, -9.27, 3.04, 2.14, 9.46, repro,
1996-07-01,-0.27, -2.41, -6.18, 2.85, 2.05, 8.98, repro,
1996-07-02,2.05, -2.19, -6.30, 2.78, 2.04, 8.99, repro,
1996-07-03,-0.10, -2.74, -6.53, 2.90, 2.07, 9.09, repro,
1996-07-04,-1.87, -3.01, -10.95, 2.85, 2.10, 9.16, repro,
1996-07-05,0.15, -2.92, -6.49, 2.92, 2.07, 9.05, repro,
1996-07-06,0.83, -3.32, -6.98, 2.87, 2.05, 8.97, repro,
1996-07-07,0.51, -2.18, -1.57, 2.89, 2.06, 8.94, repro,
1996-07-08,0.62, -2.80, -4.55, 2.91, 2.15, 9.40, repro,
1996-07-09,2.42, -1.39, -9.39, 2.86, 2.11, 9.14, repro,
1996-07-10,-0.57, -2.73, -4.69, 2.97, 2.18, 9.51, repro,
1996-07-11,0.34, -2.73, -9.00, 2.80, 2.03, 8.78, repro,
1996-07-12,-0.38, -2.69, -4.66, 2.83, 2.07, 8.88, repro,
1996-07-13,-0.83, -2.80, -1.64, 2.87, 2.08, 9.06, repro,
1996-07-14,0.43, -2.46, 2.52, 2.77, 2.04, 8.77, repro,
1996-07-15,-3.15, -2.66, -1.26, 2.84, 2.05, 8.94, repro,
1996-07-16,-1.61, -3.02, 0.18, 2.85, 2.05, 8.95, repro,
1996-07-17,-1.87, -2.68, 1.54, 2.86, 2.15, 9.07, repro,
1996-07-18,-3.07, -2.81, -2.88, 2.73, 2.01, 8.70, repro,
1996-07-19,-1.19, -2.52, -8.39, 2.72, 2.01, 8.62, repro,
1996-07-20,-2.06, -2.72, -1.88, 2.74, 2.01, 8.68, repro,
1996-07-21,-1.80, -2.83, -5.60, 2.76, 2.04, 8.70, repro,
1996-07-22,-0.11, -3.79, -4.90, 3.10, 2.21, 9.75, repro,
1996-07-23,0.05, -5.48, -22.12, 2.92, 2.07, 9.34, repro,
1996-07-24,-2.01, -4.66, -1.95, 2.66, 1.86, 8.58, repro,
1996-07-25,-4.55, -4.95, 0.53, 2.55, 1.86, 8.37, repro,
1996-07-26,-3.46, -4.97, -5.42, 2.62, 1.89, 8.51, repro,
1996-07-27,-4.02, -5.82, -5.56, 2.54, 1.83, 8.23, repro,
1996-07-28,-4.70, -4.71, -5.38, 2.55, 1.83, 8.30, repro,
1996-07-29,-0.86, -4.62, -6.34, 2.62, 1.91, 8.63, repro,
1996-07-30,-3.71, -3.38, 3.25, 2.55, 1.83, 8.32, repro,
1996-07-31,-3.81, -3.91, -3.88, 2.54, 1.84, 8.39, repro,
1996-08-01,-1.53, -4.44, -0.58, 2.59, 1.89, 8.53, repro,
1996-08-02,-4.38, -5.79, -0.89, 2.66, 1.85, 8.34, repro,
1996-08-03,-5.72, -5.45, -0.77, 2.59, 1.86, 8.34, repro,
1996-08-04,-5.60, -4.89, 6.96, 2.62, 1.90, 8.45, repro,
1996-08-05,-3.38, -4.77, -1.57, 2.61, 1.87, 8.46, repro,
1996-08-06,-1.74, -4.89, -6.18, 2.78, 2.01, 9.10, repro,
1996-08-07,-2.88, -3.05, -10.01, 2.73, 2.01, 9.00, repro,
1996-08-08,-2.87, -3.73, -6.50, 2.64, 1.90, 8.61, repro,
1996-08-09,-1.73, -2.96, -1.86, 2.76, 2.04, 8.85, repro,
1996-08-10,-2.38, -3.56, -1.75, 2.67, 1.96, 8.43, repro,
1996-08-11,-1.62, -2.44, -18.97, 2.75, 2.02, 8.64, repro,
1996-08-12,-2.83, -4.05, -2.92, 2.78, 1.97, 8.72, repro,
1996-08-13,-1.87, -1.76, -2.56, 2.73, 1.97, 8.65, repro,
1996-08-14,-2.41, -3.39, -5.67, 3.06, 2.13, 9.70, repro,
1996-08-15,0.65, -3.11, -8.25, 2.83, 2.02, 8.98, repro,
1996-08-16,-2.39, -3.04, 0.33, 2.73, 2.00, 8.79, repro,
1996-08-17,-2.06, -1.89, -2.54, 2.78, 2.03, 8.91, repro,
1996-08-18,-0.77, -3.10, -0.04, 2.90, 2.03, 9.07, repro,
1996-08-19,-5.16, -5.44, 0.46, 2.96, 1.99, 8.91, repro,
1996-08-20,-2.38, -4.40, 1.65, 2.86, 2.02, 8.88, repro,
1996-08-21,-3.82, -3.51, -7.45, 2.80, 2.01, 8.68, repro,
1996-08-22,-1.58, -3.31, -7.90, 2.74, 1.99, 8.64, repro,
1996-08-23,-0.82, -3.86, -2.75, 2.83, 1.99, 8.72, repro,
1996-08-24,-1.04, -3.76, -9.66, 2.94, 2.02, 9.05, repro,
1996-08-25,-2.23, -3.19, 1.97, 2.71, 1.94, 8.43, repro,
1996-08-26,-2.75, -3.65, 2.03, 2.77, 2.02, 8.75, repro,
1996-08-27,-2.98, -4.15, -0.62, 2.93, 2.19, 9.57, repro,
1996-08-28,-2.69, -2.24, -9.49, 2.81, 2.05, 8.99, repro,
1996-08-29,-1.25, -3.09, -13.74, 2.98, 2.13, 9.29, repro,
1996-08-30,-2.35, -3.64, 3.26, 2.86, 2.12, 8.97, repro,
1996-08-31,-3.57, -2.10, -9.03, 2.70, 1.95, 8.32, repro,
1996-09-01,-0.50, -4.70, -5.29, 2.69, 1.94, 8.35, repro,
1996-09-02,-0.43, -4.12, -14.89, 2.83, 2.04, 8.78, repro,
1996-09-03,-1.54, -4.53, -10.15, 2.83, 1.96, 8.81, repro,
1996-09-04,-2.20, -3.29, -0.05, 2.91, 2.02, 8.92, repro,
1996-09-05,-2.68, -4.35, -8.31, 2.74, 2.03, 8.68, repro,
1996-09-06,-2.77, -3.95, -16.53, 2.75, 1.99, 8.61, repro,
1996-09-07,-4.17, -4.74, -11.97, 2.92, 2.14, 9.37, repro,
1996-09-08,-3.82, -4.64, -3.36, 2.74, 2.00, 8.71, repro,
1996-09-09,-2.01, -3.80, -5.87, 2.97, 2.16, 9.35, repro,
1996-09-10,-2.38, -4.63, -1.88, 2.93, 2.12, 9.33, repro,
1996-09-11,-3.28, -4.32, -0.87, 2.95, 2.22, 9.67, repro,
1996-09-12,-3.19, -4.04, -1.60, 2.78, 2.00, 8.56, repro,
1996-09-13,-2.80, -3.77, 2.82, 2.76, 1.98, 8.58, repro,
1996-09-14,-4.36, -4.68, -0.22, 2.64, 1.86, 8.27, repro,
1996-09-15,-3.64, -3.52, -11.21, 2.95, 2.06, 9.08, repro,
1996-09-16,-2.00, -5.90, -8.70, 2.78, 2.08, 8.86, repro,
1996-09-17,-1.08, -3.00, -9.00, 2.79, 2.02, 8.80, repro,
1996-09-18,-2.62, -3.29, -9.72, 2.72, 1.97, 8.46, repro,
1996-09-19,-1.47, -3.27, -16.54, 2.62, 1.89, 8.29, repro,
1996-09-20,-1.54, -3.73, -8.35, 2.75, 2.05, 8.66, repro,
1996-09-21,-2.35, -5.02, -13.00, 2.65, 1.90, 8.40, repro,
1996-09-22,-2.48, -3.77, -5.38, 2.63, 1.92, 8.19, repro,
1996-09-23,-2.40, -3.32, -7.88, 2.71, 2.05, 8.82, repro,
1996-09-24,-3.55, -3.60, -9.08, 2.80, 1.99, 8.51, repro,
1996-09-25,-2.99, -4.15, -8.47, 2.51, 1.80, 7.91, repro,
1996-09-26,-3.00, -5.26, -8.19, 2.71, 1.97, 8.89, repro,
1996-09-27,-2.86, -4.45, -6.07, 2.60, 1.92, 8.55, repro,
1996-09-28,-2.32, -6.04, -10.27, 2.57, 1.86, 8.05, repro,
1996-09-30,-0.46, -5.30, 0.21, 2.74, 2.03, 8.61, repro,
1996-10-01,-0.31, -3.22, 3.08, 2.78, 2.06, 8.70, repro,
1996-10-02,-0.32, -3.99, -7.55, 2.64, 1.92, 8.13, repro,
1996-10-03,0.28, -4.71, 5.37, 2.71, 2.03, 8.57, repro,
1996-10-04,-2.29, -4.42, 4.16, 2.73, 2.03, 8.71, repro,
1996-10-05,-0.93, -3.18, -5.21, 2.67, 1.98, 8.43, repro,
1996-10-06,0.34, -2.37, -13.65, 2.71, 2.00, 8.40, repro,
1996-10-07,1.30, -2.34, -2.95, 2.63, 1.94, 8.24, repro,
1996-10-08,-0.14, -4.13, -5.05, 2.70, 1.96, 8.43, repro,
1996-10-09,-1.68, -3.28, -7.24, 2.72, 1.96, 8.51, repro,
1996-10-10,-0.96, -6.08, 2.64, 2.69, 1.94, 8.31, repro,
1996-10-11,-2.46, -3.12, 2.97, 2.59, 1.88, 8.05, repro,
1996-10-12,-2.47, -4.33, 2.92, 2.64, 1.95, 8.18, repro,
1996-10-13,-0.33, -5.16, -7.53, 2.85, 2.06, 8.91, repro,
1996-10-14,0.45, -2.73, 0.02, 2.66, 2.00, 8.53, repro,
1996-10-15,-0.82, -3.85, -3.54, 2.75, 2.09, 8.80, repro,
1996-10-16,-0.87, -3.73, -9.34, 2.85, 2.17, 9.21, repro,
1996-10-17,0.11, -2.99, -7.24, 2.69, 1.98, 8.49, repro,
1996-10-18,-1.07, -4.81, 2.27, 2.44, 1.77, 7.90, repro,
1996-10-19,-1.07, -3.70, -6.99, 2.59, 1.83, 8.09, repro,
1996-10-20,-3.61, -4.01, -8.92, 2.44, 1.78, 7.92, repro,
1996-10-21,-0.89, -3.78, -5.08, 2.54, 1.89, 8.08, repro,
1996-10-22,-0.69, -3.84, -8.65, 2.64, 1.97, 8.51, repro,
1996-10-23,-0.25, -3.67, -2.17, 2.57, 1.87, 8.18, repro,
1996-10-24,-2.85, -4.80, -0.74, 2.45, 1.78, 7.96, repro,
1996-10-25,-0.81, -3.79, 0.63, 2.58, 1.94, 8.37, repro,
1996-10-26,-0.40, -3.92, -9.07, 2.60, 1.93, 8.41, repro,
1996-10-27,-2.51, -3.75, -12.33, 2.55, 1.87, 8.05, repro,
1996-10-28,-3.63, -3.26, -9.46, 2.60, 1.89, 8.08, repro,
1996-10-29,-1.21, -3.52, -10.33, 2.46, 1.79, 7.92, repro,
1996-10-30,-1.50, -3.55, -13.92, 2.50, 1.77, 7.88, repro,
1996-10-31,-0.75, -4.18, -6.89, 2.70, 1.90, 8.26, repro,
1996-11-01,-0.91, -3.70, -11.73, 2.69, 1.96, 8.37, repro,
1996-11-02,-0.67, -3.14, -11.25, 2.78, 2.03, 8.62, repro,
1996-11-03,-2.04, -3.28, -3.77, 2.82, 2.00, 8.71, repro,
1996-11-04,-1.20, -5.30, -5.18, 2.84, 1.97, 8.41, repro,
1996-11-05,-2.54, -4.19, -6.60, 2.74, 1.94, 8.32, repro,
1996-11-06,-2.03, -4.48, -4.04, 2.85, 2.03, 8.66, repro,
1996-11-07,-1.75, -3.69, -9.17, 2.88, 2.05, 8.72, repro,
1996-11-08,-0.39, -3.65, -10.91, 2.64, 1.91, 8.55, repro,
1996-11-09,0.98, -2.80, -12.49, 2.93, 2.11, 9.06, repro,
1996-11-10,2.86, -2.30, -11.78, 2.82, 2.06, 8.70, repro,
1996-11-11,-1.52, -4.41, -16.07, 2.91, 2.04, 9.09, repro,
1996-11-12,3.79, -2.48, -12.44, 2.82, 2.03, 8.82, repro,
1996-11-13,0.34, -1.75, -14.71, 2.70, 1.96, 8.30, repro,
1996-11-14,-0.27, -3.23, -13.05, 2.62, 1.90, 8.15, repro,
1996-11-15,-1.16, -2.85, -7.90, 2.83, 2.05, 8.50, repro,
1996-11-16,1.78, -3.42, -4.88, 2.89, 2.14, 8.95, repro,
1996-11-17,-0.95, -3.32, -3.01, 3.08, 2.14, 9.23, repro,
1996-11-18,-0.11, -5.43, -7.05, 2.85, 2.02, 8.61, repro,
1996-11-19,-0.63, -3.80, -14.76, 3.00, 2.14, 9.23, repro,
1996-11-20,-0.33, -3.42, -7.84, 2.90, 2.07, 8.79, repro,
1996-11-21,-0.89, -3.04, -13.08, 2.85, 2.04, 8.56, repro,
1996-11-22,0.08, -3.20, -14.15, 2.93, 2.12, 9.41, repro,
1996-11-23,-0.15, -2.10, -11.19, 2.90, 2.07, 9.03, repro,
1996-11-24,0.71, -3.03, -5.87, 2.86, 2.06, 8.69, repro,
1996-11-25,-0.90, -3.22, -20.90, 3.10, 2.10, 9.14, repro,
1996-11-26,-3.11, -4.47, -15.86, 2.80, 2.04, 8.59, repro,
1996-11-27,-2.30, -4.19, -17.64, 3.06, 2.12, 9.08, repro,
1996-11-28,-4.71, -2.57, -9.12, 2.97, 2.27, 9.71, repro,
1996-11-29,-3.36, -3.23, -7.81, 3.05, 2.19, 9.58, repro,
1996-11-30,-1.92, -2.32, -3.65, 3.20, 2.11, 9.44, repro,
1996-12-01,-0.49, -4.86, -2.18, 3.01, 2.16, 9.20, repro,
1996-12-02,-2.19, -2.41, -9.06, 2.94, 2.03, 8.90, repro,
1996-12-03,-3.21, -2.22, -13.24, 2.78, 1.99, 8.53, repro,
1996-12-04,-0.29, -1.09, 0.08, 3.20, 2.22, 9.67, repro,
1996-12-05,-5.20, -3.60, 6.24, 2.99, 2.04, 8.81, repro,
1996-12-06,-3.52, -3.54, -2.68, 3.09, 2.16, 9.27, repro,
1996-12-07,0.86, -2.42, 3.97, 2.95, 2.01, 8.77, repro,
1996-12-08,1.62, -2.64, 1.09, 3.06, 2.11, 9.16, repro,
1996-12-09,5.07, -0.35, 4.39, 3.02, 2.03, 8.79, repro,
1996-12-10,-0.60, -2.85, -2.50, 3.08, 2.03, 8.84, repro,
1996-12-11,-2.07, -3.16, -2.16, 2.75, 1.98, 8.63, repro,
1996-12-12,0.09, -2.45, -11.18, 2.89, 2.08, 9.12, repro,
1996-12-13,-1.97, -2.54, -8.74, 2.80, 1.98, 8.47, repro,
1996-12-14,-1.11, -2.01, -19.17, 2.77, 1.95, 8.44, repro,
1996-12-15,-1.50, -1.21, -16.05, 2.75, 2.00, 8.69, repro,
1996-12-16,0.88, -2.48, -18.37, 2.62, 1.90, 8.27, repro,
1996-12-17,-0.80, -0.85, -19.11, 3.06, 2.06, 9.19, repro,
1996-12-18,0.90, -2.38, -15.98, 2.65, 1.91, 8.24, repro,
1996-12-19,0.28, -2.63, -15.37, 2.72, 1.95, 8.44, repro,
1996-12-20,-1.09, -3.17, -13.97, 2.76, 1.96, 8.36, repro,
1996-12-21,0.21, -2.42, -12.51, 2.75, 1.97, 8.43, repro,
1996-12-22,1.20, -1.01, -9.83, 2.76, 1.96, 8.40, repro,
1996-12-23,0.91, -2.34, -14.98, 2.82, 2.01, 8.63, repro,
1996-12-24,1.54, -2.14, -17.59, 2.90, 1.99, 8.68, repro,
1996-12-25,2.13, -2.57, -20.67, 2.80, 2.00, 8.59, repro,
1996-12-26,-0.34, -1.98, -9.45, 2.85, 1.99, 8.51, repro,
1996-12-27,0.48, -2.15, -4.56, 2.81, 1.96, 8.52, repro,
1996-12-28,0.26, -2.08, -10.12, 2.80, 1.97, 8.46, repro,
1996-12-29,-0.19, -1.67, -13.13, 2.76, 1.95, 8.44, repro,
1996-12-30,1.52, -2.34, -20.43, 2.97, 2.14, 9.31, repro,
1996-12-31,-0.14, -2.68, -10.88, 2.89, 2.08, 9.03, repro,
1997-01-01,0.26, -1.05, -1.85, 2.85, 2.05, 9.04, repro,
1997-01-02,-1.29, -2.48, 4.38, 2.91, 2.17, 9.59, repro,
1997-01-03,-0.30, -1.41, -14.63, 2.82, 2.04, 8.91, repro,
1997-01-04,-0.04, -2.16, -20.66, 2.75, 2.03, 8.79, repro,
1997-01-05,-1.07, 0.21, -22.58, 3.19, 2.35, 10.62, repro,
1997-01-06,-0.92, -1.57, -18.12, 3.04, 2.21, 9.72, repro,
1997-01-07,-1.38, -3.26, -24.96, 2.77, 1.94, 8.82, repro,
1997-01-08,-2.37, -3.12, -23.17, 2.76, 2.00, 8.94, repro,
1997-01-09,-1.54, -5.09, -12.46, 3.24, 2.31, 10.42, repro,
1997-01-10,-1.19, -4.05, -25.22, 2.80, 1.96, 8.69, repro,
1997-01-11,-1.73, -2.69, -23.85, 2.70, 1.90, 8.45, repro,
1997-01-12,-1.93, -3.43, -28.65, 2.98, 2.10, 9.45, repro,
1997-01-13,0.63, -3.79, -22.60, 2.70, 1.99, 8.76, repro,
1997-01-14,1.11, -3.05, -20.07, 3.11, 2.29, 10.46, repro,
1997-01-15,0.95, -3.99, -26.69, 2.79, 2.04, 9.16, repro,
1997-01-16,0.85, -4.05, -29.42, 3.00, 2.20, 9.74, repro,
1997-01-17,0.97, -4.18, -17.44, 2.98, 2.11, 9.65, repro,
1997-01-18,-0.09, -4.66, -27.04, 2.85, 2.15, 9.50, repro,
1997-01-19,4.02, -3.81, -16.02, 2.80, 2.10, 9.22, repro,
1997-01-20,-0.78, -4.60, -30.10, 2.65, 1.92, 8.54, repro,
1997-01-21,0.06, -3.71, -17.53, 2.69, 1.96, 8.70, repro,
1997-01-22,0.24, -2.76, -19.89, 2.89, 2.09, 9.22, repro,
1997-01-23,1.27, -2.63, -23.92, 2.95, 2.13, 9.63, repro,
1997-01-24,1.02, -3.15, -24.00, 2.83, 2.14, 9.15, repro,
1997-01-25,1.53, -3.68, -19.78, 3.31, 2.34, 10.70, repro,
1997-01-26,1.79, -2.30, -22.44, 2.74, 2.07, 9.05, repro,
1997-01-27,2.80, -2.44, -27.04, 3.28, 2.29, 9.98, repro,
1997-01-28,0.45, -5.61, -24.60, 2.65, 1.91, 8.41, repro,
1997-01-29,-0.99, -2.16, -29.34, 2.65, 1.91, 8.45, repro,
1997-01-30,1.34, -2.75, -16.33, 2.75, 1.98, 8.63, repro,
1997-01-31,0.17, -1.57, -19.41, 2.69, 1.92, 8.28, repro,
1997-02-01,0.07, -1.00, -25.99, 2.62, 1.87, 8.22, repro,
1997-02-24,3.93, -3.98, -25.63, 3.10, 2.39, 10.47, repro,
1997-02-25,-0.59, -3.28, -26.31, 2.68, 1.95, 8.45, repro,
1997-02-26,1.46, -4.75, -20.56, 2.81, 1.95, 8.76, repro,
1997-02-27,-0.86, -3.25, -16.65, 3.17, 2.22, 9.76, repro,
1997-02-28,0.20, -4.96, -23.62, 3.00, 2.15, 9.46, repro,
1997-03-01,1.27, -3.45, -12.06, 3.08, 2.22, 9.75, repro,
1997-03-02,-1.20, -5.38, -17.53, 2.80, 1.98, 8.96, repro,
1997-03-03,-1.92, -2.36, -19.73, 2.70, 1.94, 8.68, repro,
1997-03-04,0.41, -4.76, -30.43, 2.89, 2.11, 9.70, repro,
1997-03-05,-2.57, -3.39, -19.33, 3.08, 2.21, 9.53, repro,
1997-03-06,-1.61, -3.98, -10.10, 3.06, 2.19, 9.90, repro,
1997-03-07,-1.78, -5.20, -14.84, 2.56, 1.84, 8.16, repro,
1997-03-08,-1.40, -3.55, -18.98, 2.69, 1.95, 8.45, repro,
1997-03-09,1.23, -5.16, -6.28, 2.98, 2.25, 9.68, repro,
1997-03-10,-1.43, -5.70, -21.13, 2.85, 2.05, 8.97, repro,
1997-03-11,-1.70, -4.01, -18.86, 2.91, 2.03, 9.27, repro,